This is the latest recevied weather packets stored in our database for station/object DC1MPP-9. If no packets are shown the sender has not sent any weather packets the latest 1 day(s).
| Time | Temp. | Humidity | Pressure | Rain* | Wind** | Luminosity | Snow |
|---|---|---|---|---|---|---|---|
| 1777982207 | 25° C | 37% | 949 hPa | - | 0 m/s | - | - |
| 1777981966 | 25.56° C | 35% | 949 hPa | - | 0 m/s | - | - |
| 1777981725 | 25° C | 40% | 949 hPa | - | 0 m/s | - | - |
| 1777981484 | 25° C | 36% | 949 hPa | - | 0 m/s | - | - |
| 1777981243 | 25° C | 43% | 949 hPa | - | 0 m/s | - | - |
| 1777981002 | 25° C | 35% | 949 hPa | - | 0 m/s | - | - |
| 1777980760 | 26.67° C | 36% | 949 hPa | - | 0 m/s | - | - |
| 1777980519 | 26.11° C | 36% | 949 hPa | - | 0 m/s | - | - |
| 1777980278 | 26.67° C | 37% | 949 hPa | - | 0 m/s | - | - |
| 1777980037 | 26.67° C | 36% | 949 hPa | - | 0 m/s | - | - |
| 1777979796 | 26.11° C | 37% | 949 hPa | - | 0 m/s | - | - |
| 1777979555 | 25.56° C | 38% | 949 hPa | - | 0 m/s | - | - |
| 1777979314 | 26.11° C | 36% | 949 hPa | - | 0 m/s | - | - |
| 1777979073 | 26.11° C | 37% | 949 hPa | - | 0 m/s | - | - |
| 1777978832 | 26.11° C | 36% | 949 hPa | - | 0 m/s | - | - |
| 1777978591 | 25.56° C | 40% | 949 hPa | - | 0 m/s | - | - |
| 1777978350 | 25.56° C | 39% | 950 hPa | - | 0 m/s | - | - |
| 1777978109 | 25° C | 39% | 950 hPa | - | 0 m/s | - | - |
| 1777977878 | 25° C | 40% | 950 hPa | - | 0 m/s | - | - |
| 1777977627 | 25° C | 39% | 950 hPa | - | 0 m/s | - | - |
| 1777977386 | 23.89° C | 40% | 950 hPa | - | 0 m/s | - | - |
| 1777977144 | 24.44° C | 41% | 950 hPa | - | 0 m/s | - | - |
| 1777976903 | 24.44° C | 41% | 950 hPa | - | 0 m/s | - | - |
| 1777976662 | 25° C | 39% | 950 hPa | - | 0 m/s | - | - |
| 1777976421 | 25.56° C | 39% | 950 hPa | - | 0 m/s | - | - |
* Rain since midnight (hover to see other rain measurements)
** Current wind speed in m/s (hover to see current wind gust speed)